Location: Recife
(8.0585°S, 34.8848°W)
Time: 11:18:09
(UTC-03:00)

Altair - Pass Details

Date: 14 April 2026
Orbit: 1501 x 1682 km, 47.2° (Epoch: 20 May)

Event Time Altitude Azimuth Distance (km) Brightness Sun altitude
Rises 06:15:05 0° 192° (SSW) 4,828 9.9 12.1°
Reaches altitude 10° 06:22:25 10° 156° (SSE) 3,890 9.8 13.9°
Maximum altitude 06:24:22 11° 145° (SE) 3,849 10.0 14.4°
Drops below altitude 10° 06:26:20 10° 133° (SE) 3,910 10.2 14.8°
Sets 06:33:43 0° 98° (E) 4,924 11.5 16.6°
